Location: Jalan Sepang
(2.8072°N, 101.8021°E)
Time: 05:02:06
(UTC+00:00)

H-2A R/B - Pass Details

Date: 15 May 2026
Orbit: 516 x 529 km, 98.2° (Epoch: 7 June)

Event Time Altitude Azimuth Distance (km) Brightness Sun altitude
Rises 22:11:25 0° 12° (NNE) 2,637 7.3 -12.7°
Reaches altitude 10° 22:13:31 10° 13° (NNE) 1,749 6.3 -12.2°
Maximum altitude 22:17:17 86° 101° (E) 525 3.2 -11.3°
Drops below altitude 10° 22:21:03 10° 191° (S) 1,748 5.6 -10.4°
Sets 22:23:09 0° 191° (S) 2,635 6.5 -9.9°
